Location: Strawberry
(45.6646°N, 111.9596°W)
Time: 20:45:18
(UTC+00:00)

Courier 1B - Pass Details

Date: 07 October 2022
Orbit: 962 x 1209 km, 28.3° (Epoch: 29 November)

Event Time Altitude Azimuth Distance (km) Brightness Sun altitude
Rises 22:11:44 0° 244° (WSW) 4,043 12.0 25.3°
Reaches altitude 10° 22:15:31 10° 228° (SW) 3,042 12.1 24.8°
Maximum altitude 22:20:27 19° 186° (S) 2,377 10.4 24.2°
Drops below altitude 10° 22:25:14 10° 144° (SE) 2,920 10.1 23.5°
Sets 22:28:46 0° 127° (SE) 3,827 10.4 23.0°
